GEESAT 3-01

导读 | 星芒AI

GEESAT 3-01 是一颗由韩国研制的地球观测卫星,主要用于环境监测和灾害预警。该卫星搭载高分辨率光学传感器,能够获取高精度地表图像,支持农业、林业、水资源管理等多个领域应用。其发射进一步提升了韩国在遥感技术领域的自主能力。

基本信息
目录编号:
61011
目录名称:
GEESAT 3-01
国际标识:
2024-159A
轨道中心:
EARTH
卫星名称:
GEESAT 3-01
卫星全名:
GEESAT 3-01
卫星状态:
在轨 (已飞行419 天)
发射日期:
2024-09-05 UTC
国别 :
中国 (CN)
星等 :
--
轨道信息
数据来源 国际轨道数据
星历时间: 2025-10-28T23:04:31+0800
15小时前
查看轨道信息
半长轴: 6978.189km
偏心率: 0.001846
轨道倾角: 50.000°
近地点辐角 320.332°
升交点赤经 77.374°
平近点角 39.627°
近地点: 587.172km
远地点: 612.936km
周期: 96.688分钟
每日圈数: 14.893223
详细信息
使用方式:
暂无
2D轨道图
3D轨道图
轨道高度分析图
轨道倾角分析图
轨道综合分析图
查看轨道综合分析图